{"data":{"norad_id":69621,"intl_designator":"2026-140AF","name":"KUIPER-00556","alt_names":[],"object_type":"PAYLOAD","status":"ACTIVE","operator":null,"country":"US","launch_date":"2026-06-17","launch_site_code":"FRGUI","launch_vehicle":null,"mission":null,"orbit_class":"UNKNOWN","rcs_meters":null,"size_class":null,"mass_kg":null,"dimensions":null,"purposes":[],"wikipedia_slug":null,"has_3d_model":false,"image_url":null,"decayed_at":null,"tle_current":{"epoch":"2026-09-20T03:18:12.972960Z","epoch_age_seconds":60404,"freshness":"FRESH","line1":"1 69621U 26140AF  26263.13765015  .00008635  00000+0  11645-2 0  9994","line2":"2 69621  51.8987 308.3014 0000419  66.9991 293.1015 14.79775721 15723","mean_motion":14.79775721,"eccentricity":4.19e-5,"inclination_deg":51.8987,"raan_deg":308.3014,"arg_perigee_deg":66.9991,"mean_anomaly_deg":293.1015,"bstar":0.0011645,"rev_number":1572,"period_min":97.312043951287,"perigee_km":629.73852169058,"apogee_km":630.32580626652,"semimajor_km":7008.1691639785,"source":"CELESTRAK","updated_at":"2026-09-20T09:00:25.030300Z"}}}